Location: Bouchavesnes-Bergen
(49.9859°N, 2.9203°E)
Time: 23:59:46
(UTC+00:00)

ADEOS II - Pass Details

Date: 09 March 2021
Orbit: 799 x 801 km, 98.6° (Epoch: 13 April)

Event Time Altitude Azimuth Distance (km) Brightness Sun altitude
Rises 03:52:45 0° 4° (N) 3,324 5.7 -23.2°
Reaches altitude 10° 03:55:44 10° 347° (NNW) 2,389 4.6 -22.8°
Enters shadow 03:58:27 18° 317° (NW) 1,892 3.8 -22.4°
